Regional Weather Roundup
Issued by NWS

Home | Current Version | Previous Version | Text Only | Print | Product List | Glossary Off
Versions: 1 2 3 4 5 6 7 8 9 10 11 12 13 14 15 16 17 18 19 20 21 22 23 24 25 26 27 28 29 30 31 32 33 34 35 36 37 38 39 40 41 42 43 44 45 46 47 48 49 50

000
ASUS43 KMKX 242011
RWRWI

WISCONSIN REGIONAL WEATHER ROUNDUP
NATIONAL WEATHER SERVICE MILWAUKEE/SULLIVAN WI
300 PM CDT TUE MAY 24 2016

NOTE: "FAIR" INDICATES FEW OR NO CLOUDS BELOW 12,000 FEET WITH NO
SIGNIFICANT WEATHER AND/OR OBSTRUCTIONS TO VISIBILITY.

WIZ001-002-006>008-014>016-023>028-242100-
NORTHWEST WISCONSIN

CITY           SKY/WX    TMP DP  RH WIND       PRES   REMARKS
SUPERIOR ARPT  SUNNY     71  60  67 E8        29.89R
ASHLAND        PTSUNNY   62  61  96 N14       29.89R
HAYWARD        PTSUNNY   76  59  55 VRB7      29.90R
SIREN          MOSUNNY   78  58  50 NW8       29.89F
CUMBERLAND     MOSUNNY   79  50  36 W13       29.89F
RICE LAKE      MOSUNNY   81  49  32 W12G17    29.90F HX  80
CHETEK         SUNNY     80  55  42 W5        29.89F HX  80
LADYSMITH      CLOUDY    79  55  44 W12       29.92S
EAU CLAIRE     CLOUDY    81  58  45 SW12G17   29.88F HX  81
MENOMONIE      MOSUNNY   83  60  45 W7        29.88F HX  83
NEW RICHMOND   SUNNY     80  49  33 NW9       29.90S HX  80
OSCEOLA        MOSUNNY   78  58  48 W6        29.92S
$$

WIZ003>005-009-010-017-018-242100-
NORTH CENTRAL WISCONSIN

CITY           SKY/WX    TMP DP  RH WIND       PRES   REMARKS
MANITOWISH WTR CLOUDY    74  58  57 SW7       29.89F
ARBOR VITAE    CLOUDY    72  64  74 CALM      29.91S
WOODRUFF       CLOUDY    72  64  74 CALM      29.91S
RHINELANDER    MOSUNNY   74  59  59 S8G17     29.92F
EAGLE RIVER      N/A     72  57  59 SW7       29.91S
LAND O LAKES   CLOUDY    73  60  63 SW5       29.92S
PHILLIPS       MOSUNNY   75  57  54 SW10      29.90S
TOMAHAWK       CLOUDY    74  58  58 SW7       29.91F
MEDFORD        CLOUDY    73  61  66 W9        29.92F
MERRILL        CLOUDY    75  59  57 SW10G18   29.92F
$$

WIZ029-030-035-036-043>047-242100-
CENTRAL WISCONSIN

CITY           SKY/WX    TMP DP  RH WIND       PRES   REMARKS
WAUSAU         CLOUDY    76  61  59 S7        29.90F
MOSINEE        MOSUNNY   73  64  73 SW7       29.93F
MARSHFIELD     PTSUNNY   80  57  45 NW15      29.91S HX  80
STEVENS POINT  CLOUDY    76  58  52 SW8       29.91F
WAUPACA        PTSUNNY   82  60  46 S13       29.90F HX  82
WAUTOMA        CLOUDY    80  59  48 W10       29.91F HX  81
WISC RAPIDS    CLOUDY    80  55  42 W12       29.92F HX  80
CAMP DOUGLAS   NOT AVBL
$$

WIZ011>013-019>022-031-037>040-048>050-242100-
NORTHEAST WISCONSIN

CITY           SKY/WX    TMP DP  RH WIND       PRES   REMARKS
ANTIGO         MOSUNNY   73  62  68 W12       29.93S
SHAWANO        PTSUNNY   79  59  50 SW8G18    29.90S HX  80
OCONTO         PTSUNNY   79  62  55 SW12      29.88F HX  80
STURGEON BAY   NOT AVBL
GREEN BAY      CLOUDY    83  57  41 SW16G25   29.88F HX  82
MANITOWOC      CLOUDY    72  58  61 SE7       29.91F
APPLETON       PTSUNNY   81  54  39 SW16G24   29.89F HX  80
CLINTONVILLE   PTSUNNY   79  55  44 SW12      29.89F
OSHKOSH        CLOUDY    81  58  45 SW12G24   29.90F HX  81
$$

WIZ032>034-041-042-053>061-242100-
SOUTHWEST WISCONSIN

CITY           SKY/WX    TMP DP  RH WIND       PRES   REMARKS
LA CROSSE      PTSUNNY   80  59  48 E6        29.89F HX  81
SPARTA         CLOUDY    80  60  51 SW6       29.92S HX  80
VIROQUA        PTSUNNY   80  56  43 S5        29.93F HX  80
BOSCOBEL       MOSUNNY   82  60  47 W3        29.91F HX  82
PRAIRIE DU CHI MOSUNNY   81  56  42 CALM      29.90S HX  81
PLATTEVILLE    PTSUNNY   80  61  53 SW6       29.94S HX  81
$$

WIZ056-057-062-063-064-067-068-242100-
SOUTH CENTRAL WISCONSIN

CITY           SKY/WX    TMP DP  RH WIND       PRES   REMARKS
REEDSBURG      PTSUNNY   81  58  45 W9        29.91F HX  81
BARABOO/DELLS  PTSUNNY   82  55  40 S12       29.92S HX  81
LONE ROCK      PTSUNNY   80  60  50 S9        29.92F HX  81
MINERAL POINT  MOSUNNY   81  59  47 SW7       29.94S HX  81
MADISON        CLOUDY    78  59  51 VRB6      29.93F
MIDDLETON      PTSUNNY   80  60  49 SW9       29.94F HX  81
WATERTOWN      CLOUDY    81  63  54 SW9       29.92F HX  82
MONROE         MOSUNNY   81  54  39 SW10G20   29.93F HX  80
JANESVILLE     PTSUNNY   82  57  42 SW9       29.93S HX  82
$$

WIZ051-052-058>065-066-070>072-242100-
SOUTHEAST WISCONSIN

CITY           SKY/WX    TMP DP  RH WIND       PRES   REMARKS
MILWAUKEE      PTSUNNY   82  56  40 SW14      29.92F HX  82
WAUKESHA       MOSUNNY   79  61  53 NW8       29.94F HX  80
MILWAUKEE/TIMM PTSUNNY   81  52  36 W14       29.93F HX  80
RACINE         PTSUNNY   80  56  43 SE12      29.94F HX  80
BURLINGTON     SUNNY     86  54  32 SW14G23   29.93F HX  84
KENOSHA        MOSUNNY   85  58  39 SW9G21    29.93F HX  84
FOND DU LAC    MOSUNNY   81  58  45 SW15      29.91F HX  81
SHEBOYGAN      PTSUNNY   72  66  81 S7        29.93F
WEST BEND      PTSUNNY   77  63  61 SW8       29.93F
JUNEAU         MOSUNNY   78  61  55 SW10G18   29.94F
$$

LSZ147-162-242100-
LAKE SUPERIOR

STATION/POSITION TIME  TEMP    WIND        PRES    WAVE
                       AIR SEA DIR/SP/G            HT/PER
                 (UTC) (F)     (DEG/KT/KT) (MB)    (FT/S)
W MID LAKE BUOY  1950   43 38  330/  8/  8 1013.9R   0
DEVILS ISLAND    2000   51      30/ 11/ 12 1013.6R
SAXON HARBOR     1900   60     310/  2/  3 1011.2
$$

LMZ867-665-643>646-242100-
LAKE MICHIGAN

STATION/POSITION TIME  TEMP    WIND        PRES    WAVE
                       AIR SEA DIR/SP/G            HT/PER
                 (UTC) (F)     (DEG/KT/KT) (MB)    (FT/S)
CHAMBERS ISLAND  1900   72     170/  5/  8 1012.5R
N MID LAKE BUOY  1950   49 45  210/ 12/ 14 1012.7R   1/ 4
NORTHPORT PIER   1900   53     140/ 10/ 12 1012.5S
SISTER BAY       1919          300/  5/  7   N/A
ALGOMA LAKESHORE 1917          230/ 12/ 14   N/A
KEWAUNEE LAKESHO 1900   54     180/ 13/ 14 1012.8R
SHEBOYGAN LAKESH 2000   67     170/ 13/ 16 1013.9R
PORT WASHINGTON  1900   62     180/  4/  8 1014.2
S MID LAKE BUOY  1950   56 48  150/ 10/ 12 1014.4F   1
KENOSHA   LAKESH 2000   62     170/  8/ 13 1013.5F
$$

TC  - TEMPERATURE IN CELSIUS
VSB - VISIBILITY IN STATUTE MILES
WCI - WIND CHILL INDEX
HX  - HEAT INDEX





USA.gov is the U.S. government's official web portal to all federal, state and local government web resources and services.